CZ-3B DEB, 42464

Orbit data source: Space-Track

CZ-3B DEB, 42464 is space debris in HEO originally from a launch on Sat, 04 Sep 2010 UTC launched from the Xichang Space Center, China (XSC). Debris objects in space refer to the collection of defunct objects orbiting the Earth. Examples of debris include non-operational satellites, rocket bodies, and fragments generated from explosions, collisions, or faulty payload assembly.

Loading next visibility...
Identifier
42464, 2010-042AF
Orbit
HEO
Last TLE update
3 days ago
Origin
Manufacturer
CALT
Mission
Spacecraft
Bus & Motor
Unknown
Mass
Unknown
Launch date (UTC)
2010-09-04 (15 years ago)
Launch vehicle
Unknown
Launch site
Xichang Space Center, China (XSC)
Object type
Payload
Rocket body
Debris
Shape & HBR
Unknown
Radar Cross Section
Medium (>0.1 m² and <1 m²)

Expand to show TLE details & history

TLE from 3 days ago
0 CZ-3B DEB
1 42464U 10042AF  25125.83333250 -.00000339  00000-0  00000-0 0  9995
2 42464  25.4520  10.4676 7357075 234.9197  33.1406  1.82368093 75091
Epoch: 2025-05-05T19:59Z
Definitive object data (Epoch: 2025-05-05T19:59:59.927Z)
Latitude
0.00006°
Longitude
-153.45999°
Altitude
16,122.408 km
Speed
4.62 km/s
True Right ascension
00h 41m 55s
True Declination
0° 00' 00"
Sunlit
Object was in daylight at TLE epoch
Visualization TLE readout
Latitude
15.43717°
Longitude
-118.82824°
Altitude
36,882.122 km
Speed
2.084 km/s
Apparent Right ascension
02h 52m 48s
Apparent Declination
9° 06' 22"
Sunlit
Object is in daylight
Visualization observer readout
Local Sidereal Time
13:46:53
Azimuth
338.981° N
Elevation
-38.657°
Doppler factor
1
Orbital elements
Apogee altitude
42,746.76 km
Perigee altitude
1,102.007 km
Semi-major axis
28,302.521 km
Eccentricity
0.7357075
Inclination
25.452°
RAAN
10.4676°
Arg. of periapsis
234.9197°
True anomaly
124.88267°
Mean anomaly
33.1406°
Eccentric anomaly
73.57286°
Mean motion
0.45583 °/min
BSTAR
Unknown
Orbital period
789.76 mins
Loading maneuver chart data...
Loading SW <> Apogee altitude chart data...
Loading historical data...
Loading historical data...
Loading historical data...
Loading historical data...
Loading historical data...
Loading historical data...
Loading historical data...

CZ-3B DEB Visibility forecast

Observer location: undefined°, undefined°

Span
Click to sort rows by Start time (UTC) header in descending order
Start Az.
Max El. time (UTC)
Max El. Az.
Max El.
End time (UTC)
End Az.
738 mins2025-05-09 15:29:11.602Z193.442° SSW2025-05-09 19:54:11.602Z200.503° SSW41.868°2025-05-10 03:47:11.602Z172.321° S
|